Regional Weather Roundup
Issued by NWS

Home | Current Version | Previous Version | Graphics & Text | Print | Product List | Glossary On
Versions: 1 2 3 4 5 6 7 8 9 10 11 12 13 14 15 16 17 18 19 20 21 22 23 24 25 26 27 28 29 30 31 32 33 34 35 36 37 38 39 40 41 42 43 44 45 46 47 48 49 50
954
ASUS44 KJAN 011410
RWRMS

MISSISSIPPI HOURLY WEATHER ROUNDUP
NATIONAL WEATHER SERVICE JACKSON MS
900 AM CDT FRI AUG 01 2014

NOTE: "FAIR: INDICATES FEW OR NO CLOUDS BELOW 12,000 FEET WITH NO
SIGNIFICANT WEATHER AND/OR OBSTRUCTIONS TO VISIBILITY.

MSZ001>002-007>008-010>013-018>021-025>028-034>036-011500-
NORTHWEST MISSISSIPPI

CITY           SKY/WX    TMP DP  RH WIND       PRES   REMARKS
CLARKSDALE     CLOUDY    73  72  94 N8        30.07S
CLEVELAND      CLOUDY    73  70  91 NE5       30.04S
GREENWOOD      MOSUNNY   75  68  78 NE5       30.04F
GREENVILLE     LGT RAIN  72  70  94 CALM      30.05S FOG
GRENADA        FAIR      73  66  78 E3        30.06S
OLIVE BRANCH   PTSUNNY   72  70  94 E6        30.09R
OXFORD           N/A     73  66  78 E3        30.09S
TUNICA         MOSUNNY   73  68  83 NE7       30.08S
$$

MSZ003>006-009-014>017-022>024-029>033-037>039-011500-
NORTHEAST MISSISSIPPI

CITY           SKY/WX    TMP DP  RH WIND       PRES   REMARKS
BELMONT        FAIR      70  66  87 CALM      30.08R
COLUMBUS AFB   MOSUNNY   71  66  84 E3        30.06S
CORINTH        FAIR      73  64  73 CALM      30.08S
GOLDN TRIANGLE MOSUNNY   72  64  78 NE5       30.06S
STARKVILLE     FAIR      73  64  73 NE3       30.06R
TUPELO         PTSUNNY   74  66  76 NE6       30.06R
$$

MSZ040-058-011500-
CENTRAL MISSISSIPPI

CITY           SKY/WX    TMP DP  RH WIND       PRES   REMARKS
JACKSON INTL   CLOUDY    75  65  70 NE3       30.04R
JACKSON HAWKNS CLOUDY    75  62  64 MISG      30.05R
MERIDIAN KEY   MOSUNNY   78  63  59 CALM      30.04S
MERIDIAN NAS   MOSUNNY   76  65  68 N3        30.04F
RAYMOND        FAIR      70  64  83 N3        30.04S
VICKSBURG      RAIN      70  66  87 E7        30.04R
$$

MSZ059>079-011500-
SOUTH MISSISSIPPI

CITY           SKY/WX    TMP DP  RH WIND       PRES   REMARKS
BROOKHAVEN     FAIR      70  68  94 CALM      30.05S FOG
COLUMBIA       FAIR      70  68  94 CALM      30.03R FOG
HATTIESBURG    LGT RAIN  71  69  93 NW5       30.04R FOG
MCCOMB         CLOUDY    71  67  87 E3        30.03S
NATCHEZ        CLOUDY    70  66  88 E8        30.01R
PINE BELT      CLOUDY    70  64  83 CALM      30.06R
$$

MSZ080>082-011500-
COASTAL MISSISSIPPI

CITY           SKY/WX    TMP DP  RH WIND       PRES   REMARKS
BAY ST LOUIS   MOSUNNY  N/A N/A N/A CALM      30.03R
BILOXI         CLOUDY    75  67  76 NE6       30.01F
PASCAGOULA     CLOUDY    74  69  85 CALM      30.02S
GULFPORT       CLOUDY    79  66  64 NE5       30.01S
$$



USA.gov is the U.S. government's official web portal to all federal, state and local government web resources and services.